Bryce Canyon, UT

2:49 PM MST on December 06, 2019 (GMT -0700)
Bryce Canyon

Weather History for KBCE - October, 2019

Change the Weather History Date:

Friday, October 25, 2019

  Actual Average Record
Temperature  
Mean Temperature 40 °F -  
Max Temperature 60 °F 52 °F 73 °F (1959)
Min Temperature 21 °F 25 °F 3 °F (1975)
Degree Days  
Heating Degree Days 24    
Moisture  
Dew Point 13 °F    
Average Humidity 38    
Maximum Humidity 57    
Minimum Humidity 20    
Precipitation  
Precipitation 0.00 in - - ()
Sea Level Pressure  
Sea Level Pressure 30.27 in    
Wind  
Wind Speed 7 mph (West)    
Max Wind Speed 13 mph    
Max Gust Speed -    
Visibility 10 miles    
Events      
Averages and records for this station are not official NWS values.
T = Trace of Precipitation, MM = Missing Value Source: NWS Daily Summary

Daily Weather History Graph

Daily Weather History Graph

Search for Another Location

Airport or City:

Astronomy

Oct. 25, 2019 Rise Set
Actual Time 7:46 AM MDT 6:38 PM MDT
Civil Twilight 7:19 AM MDT 7:05 PM MDT
Nautical Twilight 6:49 AM MDT 7:35 PM MDT
Astronomical Twilight 6:18 AM MDT 8:06 PM MDT
Moon 4:38 AM MDT (10/25) 5:38 PM MDT (10/25)
Length of Visible Light 11h 45m
Length of Day
10h 51m
Waning Crescent, 8% of the Moon is Illuminated
Oct 25
Waning Crescent
Oct 27
New
Nov 4
First Quarter
Nov 12
Full
Nov 19
Last Quarter

Hourly Weather History & Observations

Time (MDT) Temp. Windchill Dew Point Humidity Pressure Visibility Wind Dir Wind Speed Gust Speed Precip Events Conditions
12:53 AM 27.0 °F 20.5 °F 10.0 °F 49% 30.35 in 10.0 mi West 5.8 mph - N/A   Clear
1:53 AM 27.0 °F 18.7 °F 10.0 °F 49% 30.35 in 10.0 mi WNW 8.1 mph - N/A   Clear
2:53 AM 23.0 °F - 8.1 °F 53% 30.35 in 10.0 mi Calm Calm - N/A   Clear
3:53 AM 21.9 °F 15.7 °F 7.0 °F 53% 30.35 in 10.0 mi NW 4.6 mph - N/A   Clear
4:53 AM 28.0 °F 18.1 °F 9.0 °F 45% 30.32 in 10.0 mi North 11.5 mph - N/A   Clear
5:53 AM 28.0 °F 20.8 °F 10.0 °F 47% 30.34 in 10.0 mi NW 6.9 mph - N/A   Clear
6:53 AM 21.0 °F 11.4 °F 8.1 °F 57% 30.40 in 10.0 mi West 8.1 mph - N/A   Clear
7:53 AM 23.0 °F 13.9 °F 9.0 °F 55% 30.42 in 10.0 mi WNW 8.1 mph - N/A   Clear
8:53 AM 32.0 °F 26.4 °F 9.0 °F 38% 30.38 in 10.0 mi NW 5.8 mph - N/A   Clear
9:53 AM 39.0 °F 33.4 °F 9.0 °F 29% 30.37 in 10.0 mi NNE 8.1 mph - N/A   Clear
10:53 AM 46.0 °F 43.1 °F 14.0 °F 28% 30.33 in 10.0 mi NNE 5.8 mph - N/A   Clear
11:53 AM 51.1 °F - 17.1 °F 26% 30.30 in 10.0 mi Variable 5.8 mph - N/A   Clear
12:53 PM 57.0 °F - 19.9 °F 24% 30.25 in 10.0 mi Variable 3.5 mph - N/A   Clear
1:53 PM 59.0 °F - 19.0 °F 21% 30.21 in 10.0 mi SSE 9.2 mph - N/A   Clear
2:53 PM 60.1 °F - 18.0 °F 20% 30.19 in 10.0 mi SSE 10.4 mph - N/A   Clear
3:53 PM 60.1 °F - 18.0 °F 20% 30.18 in 10.0 mi SE 12.7 mph - N/A   Clear
4:53 PM 57.9 °F - 17.1 °F 20% 30.15 in 10.0 mi SSE 11.5 mph - N/A   Clear
5:53 PM 55.0 °F - 16.0 °F 22% 30.15 in 10.0 mi SSE 11.5 mph - N/A   Clear
6:53 PM 46.0 °F 41.9 °F 15.1 °F 29% 30.22 in 10.0 mi South 8.1 mph - N/A   Clear
7:53 PM 39.0 °F 36.8 °F 15.1 °F 38% 30.25 in 10.0 mi SSW 3.5 mph - N/A   Clear
8:53 PM 32.0 °F 27.5 °F 12.9 °F 45% 30.24 in 10.0 mi WSW 4.6 mph - N/A   Clear
9:53 PM 33.1 °F 28.7 °F 14.0 °F 46% 30.19 in 10.0 mi West 4.6 mph - N/A   Clear
10:53 PM 34.0 °F 27.2 °F 15.1 °F 46% 30.15 in 10.0 mi WNW 8.1 mph - N/A   Clear
11:53 PM 32.0 °F 25.6 °F 16.0 °F 52% 30.11 in 10.0 mi West 6.9 mph - N/A   Clear